Printer-friendly version

IAU Minor Planet Center

Minor Planet Center

MPEC 2003-W41 : 2003 WY25

The following Minor Planet Electronic Circular may be linked-to from your own Web pages, but must not otherwise be redistributed electronically.


Read MPEC 2003-W40 Read MPEC 2003-W42


M.P.E.C. 2003-W41                                Issued 2003 Nov. 22, 22:59 UT

     The Minor Planet Electronic Circulars contain information on unusual
         minor planets and routine data on comets.  They are published
   on behalf of Commission 20 of the International Astronomical Union by the
          Minor Planet Center, Smithsonian Astrophysical Observatory,
                          Cambridge, MA 02138, U.S.A.

         Supported in part by the Steven and Michele Kirsch Foundation
             Prepared using the Tamkin Foundation Computer Network

                              MPC@CFA.HARVARD.EDU
          URL http://cfa-www.harvard.edu/iau/mpc.html  ISSN 1523-6714

                                   2003 WY25

Observations:
     K03W25Y  C2003 10 25.16974 00 25 15.12 -19 59 45.5          18.8 R      699
     K03W25Y  C2003 10 25.18313 00 25 14.13 -19 59 50.2                      699
     K03W25Y  C2003 10 25.19645 00 25 13.24 -19 59 54.9                      699
     K03W25Y  C2003 10 25.20986 00 25 12.41 -20 00 02.6                      699
     K03W25Y* C2003 11 22.15395 00 08 44.64 -16 03 51.2          18.1 V      703
     K03W25Y  C2003 11 22.16521 00 08 44.34 -16 03 27.5          18.0 V      703
     K03W25Y  C2003 11 22.17650 00 08 44.02 -16 03 02.9          17.7 V      703
     K03W25Y  C2003 11 22.18779 00 08 43.59 -16 02 39.0          17.9 V      703
     K03W25Y  C2003 11 22.24724500 08 42.10 -16 00 27.5          18.0 V      703
     K03W25Y  C2003 11 22.77297 00 08 48.27 -15 41 19.5                      246
     K03W25Y  C2003 11 22.77384 00 08 48.23 -15 41 17.4                      246
     K03W25Y  C2003 11 22.77477 00 08 48.23 -15 41 15.8                      246
     K03W25Y  C2003 11 22.77569 00 08 48.19 -15 41 13.0                      246
     K03W25Y  C2003 11 22.77662 00 08 48.14 -15 41 11.2                      246
     K03W25Y  C2003 11 22.77797 00 08 48.11 -15 41 08.5                      246
     K03W25Y  C2003 11 22.88810 00 08 46.72 -15 36 48.0          17.8 R      620
     K03W25Y  C2003 11 22.89144 00 08 46.65 -15 36 40.1          18.2 R      620
     K03W25Y  C2003 11 22.89477 00 08 46.61 -15 36 31.4          17.7 R      620

Observer details:
246 Klet Observatory-KLENOT.  Observers J. Ticha, M. Tichy, M. Kocer.  1.06-m
    KLENOT Telescope + CCD.
620 Observatorio Astronomico de Mallorca.  Observers S. Sanchez, R. Stoss,
    J. Nomen.  0.30-m f/9 Schmidt-Cassegrain + CCD.
699 Lowell Observatory-LONEOS.  Observer M. E. Van Ness.  0.59-m LONEOS
    Schmidt + CCD.
703 Catalina Sky Survey.  Observers S. Larson, E. Beshore, E. Christensen,
    R. Hill, S. Kolar, D. McLean.  0.68-m f/1.8 Schmidt + CCD.

Orbital elements:
2003 WY25                                                            PHA 0.005A
Epoch 2003 Dec. 27.0 TT = JDT 2453000.5                 MPC
M   2.84072              (2000.0)            P               Q
n   0.18426257     Peri.    9.06224     +0.20088440     -0.97485616
a   3.0585198      Node    69.39497     +0.89220054     +0.14141863
e   0.6730318      Incl.    5.91382     +0.40450420     +0.17220987
P   5.35           H   20.8           G   0.15           U   7
Residuals in seconds of arc
031025 699  0.0   0.3-    031122 703  0.8+  0.0     031122 246  0.3-  0.7+
031025 699  0.9-  0.4+    031122 703  1.0-  0.5-    031122 246  0.8-  0.4+
031025 699  0.3-  1.1+    031122 703  1.4-  0.2+    031122 246  0.8-  0.0
031025 699  1.2+  1.2-    031122 246  0.1+  0.3+    031122 620  0.5+  0.8-
031122 703  0.7+  0.2+    031122 246  0.2-  0.5+    031122 620  0.5+  0.7-
031122 703  0.9+  0.2-    031122 246  0.0   0.0     031122 620  0.9+  0.1+

Ephemeris:
2003 WY25                a,e,i = 3.06, 0.67, 6                   q = 1.0000
Date    TT    R. A. (2000) Decl.     Delta      r     Elong.  Phase     V
2003 11 17    00 09.38   -18 22.6    0.130    1.057   118.8    55.0    18.5
2003 11 22    00 08.74   -16 08.3    0.105    1.037   115.2    59.6    18.1
2003 11 27    00 10.08   -12 11.7    0.081    1.021   112.6    63.2    17.6
2003 12 02    00 14.97   -04 35.6    0.057    1.009   112.2    64.8    16.9
2003 12 07    00 28.92   +13 10.3    0.036    1.002   117.1    61.1    15.8

2003 12 08    00 34.44   +19 24.5    0.032    1.001   119.2    59.2    15.5
2003 12 09    00 41.95   +27 03.0    0.029    1.001   121.7    56.8    15.2
2003 12 10    00 52.61   +36 13.1    0.027    1.000   124.4    54.4    14.9
2003 12 11    01 08.76   +46 43.8    0.025    1.000   126.6    52.2    14.7
2003 12 12    01 35.50   +57 52.7    0.025    1.000   127.9    51.0    14.7
2003 12 13    02 25.60   +68 20.3    0.025    1.000   127.7    51.1    14.7
2003 12 14    04 10.0    +75 59.5    0.027    1.001   126.4    52.4    14.9
2003 12 15    06 56.4    +77 47.5    0.029    1.001   124.4    54.2    15.1
2003 12 16    08 55.6    +74 26.4    0.032    1.002   122.4    56.0    15.4
2003 12 17    09 52.93   +69 50.6    0.036    1.003   120.6    57.6    15.7

2003 12 27    11 18.41   +46 28.4    0.081    1.023   117.2    58.7    17.5
2004 01 06    11 21.59   +40 02.2    0.131    1.061   123.7    50.4    18.4
2004 01 16    11 14.73   +37 10.5    0.181    1.115   132.8    40.4    18.9
2004 01 26    11 02.78   +35 23.4    0.235    1.180   142.7    30.4    19.3
2004 02 05    10 48.89   +33 47.3    0.295    1.254   152.0    21.7    19.7
2004 02 15    10 35.84   +32 03.6    0.366    1.335   158.4    15.8    20.1
2004 02 25    10 25.60   +30 08.9    0.450    1.419   159.3    14.3    20.6
2004 03 06    10 19.26   +28 06.3    0.549    1.507   154.8    16.3    21.3
2004 03 16    10 16.84   +26 01.5    0.663    1.596   147.9    19.4    21.9

Kyle E. Smalley              (C) Copyright 2003 MPC           M.P.E.C. 2003-W41

Read MPEC 2003-W40 Read MPEC 2003-W42


Our Web policy. Index to the CBAT/MPC/ICQ pages.


Valid HTML 4.01!